This is the latest recevied weather packets stored in our database for station/object IZ7EXI-13. If no packets are shown the sender has not sent any weather packets the latest 10 day(s).
| Time | Temp. | Humidity | Pressure | Rain* | Wind** | Luminosity | Snow |
|---|---|---|---|---|---|---|---|
| 1777652575 | 20° C | 21% | 1023.6 hPa | - | - | - | - |
| 1777651674 | 20° C | 21% | 1023.8 hPa | - | - | - | - |
| 1777650811 | 20° C | 21% | 1023.7 hPa | - | - | - | - |
| 1777650774 | 20° C | 21% | 1023.7 hPa | - | - | - | - |
| 1777649874 | 19.44° C | 22% | 1023.9 hPa | - | - | - | - |
| 1777648974 | 19.44° C | 24% | 1023.9 hPa | - | - | - | - |
| 1777648073 | 18.89° C | 28% | 1024 hPa | - | - | - | - |
| 1777647197 | 18.33° C | 28% | 1024.1 hPa | - | - | - | - |
| 1777647173 | 18.33° C | 28% | 1024.1 hPa | - | - | - | - |
| 1777646273 | 17.78° C | 29% | 1024.3 hPa | - | - | - | - |
| 1777645373 | 18.33° C | 28% | 1024.4 hPa | - | - | - | - |
| 1777644473 | 17.78° C | 27% | 1024.4 hPa | - | - | - | - |
| 1777643572 | 18.33° C | 28% | 1024.4 hPa | - | - | - | - |
| 1777642708 | 17.78° C | 26% | 1024.4 hPa | - | - | - | - |
| 1777642672 | 17.78° C | 26% | 1024.4 hPa | - | - | - | - |
| 1777641811 | 17.78° C | 27% | 1024.4 hPa | - | - | - | - |
| 1777641772 | 17.78° C | 27% | 1024.4 hPa | - | - | - | - |
| 1777640901 | 18.33° C | 28% | 1024.3 hPa | - | - | - | - |
| 1777640872 | 18.33° C | 28% | 1024.3 hPa | - | - | - | - |
| 1777639995 | 18.33° C | 28% | 1024.6 hPa | - | - | - | - |
| 1777639971 | 18.33° C | 28% | 1024.6 hPa | - | - | - | - |
| 1777639071 | 17.78° C | 29% | 1024.7 hPa | - | - | - | - |
| 1777638205 | 18.33° C | 27% | 1024.7 hPa | - | - | - | - |
| 1777638171 | 18.33° C | 27% | 1024.7 hPa | - | - | - | - |
| 1777637295 | 18.33° C | 27% | 1024.8 hPa | - | - | - | - |
* Rain since midnight (hover to see other rain measurements)
** Current wind speed in m/s (hover to see current wind gust speed)